Location: Gandikunta
(16.3784°N, 80.8378°E)
Time: 20:05:43
(UTC+00:00)

USA 186 - Pass Details

Date: 19 May 2025
Orbit: 338 x 359 km, 97.0° (Epoch: 19 May)

Event Time Altitude Azimuth Distance (km) Brightness Sun altitude
Exits shadow 14:26:24 10° 24° (NNE) 1,269 4.2 -19.4°
Drops below altitude 10° 14:26:31 - 23° (NNE) 1,310 4.3 -19.4°
Sets 14:28:34 0° 8° (N) 2,115 5.6 -19.8°
